Regional Weather Roundup
Issued by NWS Midland/Odessa, TX

Skip options and go directly to product.
Home | Oldest Version | Previous Version | Current Version | All | Graphics & Text | Save Text | Print | Product List | Glossary On

Skip product version selection by date and time.   
073
ASUS44 KMAF 012110
RWRMAF
MIDLAND AREA WEATHER ROUNDUP
NATIONAL WEATHER SERVICE MIDLAND TX
400 PM CDT WED APR 01 2015

...IN SOUTHWEST TEXAS AND SOUTHEAST NEW MEXICO...

CITY           SKY/WX    TMP DP  RH WIND       PRES   REMARKS
ALPINE         SUNNY     80  36  20 W9G21     30.00S
ANDREWS        FAIR      83  40  21 SW9       29.83F
ARTESIA        MOSUNNY   82  36  18 SW5       29.81F
BIG SPRING     SUNNY     88  40  18 S15       29.82F
CARLSBAD       NOT AVBL
DRYDEN           N/A     85  51  31 S8G20     29.83F
FORT STOCKTON  SUNNY     83  40  21 W8        29.85F
GUAD PASS      SUNNY     79  37  22 W23G35    29.98F
HOBBS          MOSUNNY   82  28  14 W12       29.84F
MARFA          SUNNY     77  37  24 W17G23    30.00S
MIDLAND AIRPK  SUNNY     85  39  20 SW10G18   29.82F
MIDLAND INTL   SUNNY     84  43  23 SW12      29.82F
ODESSA         SUNNY     84  41  21 VRB6      29.83F
PECOS          MOSUNNY   86  40  19 SW8G17    29.80F
PRESIDIO       FAIR      83  46  27 S5        29.89F
SEMINOLE       SUNNY     83  34  17 W12G17    29.83F
SNYDER         MOSUNNY   85  44  23 S9G18     29.79F
WINK           SUNNY     86  36  16 VRB5      29.80F
$$
...OTHER STATIONS IN TEXAS...

CITY           SKY/WX    TMP DP  RH WIND       PRES   REMARKS
ABILENE        MOSUNNY   84  53  34 S16       29.80F
AMARILLO       MOSUNNY   84  31  14 S13       29.73F
AUSTIN         PTSUNNY   79  65  62 S15       29.88F
BROWNSVILLE    CLOUDY    78  69  73 SE21      29.89F
CORPUS CHRISTI PTSUNNY   79  69  71 SE26      29.89F
DALLAS FTW     PTSUNNY   77  63  61 S20G25    29.82F
DEL RIO        SUNNY     83  63  50 SE15G21   29.83F
EL PASO        MOSUNNY   82  31  15 W24G30    29.91F
HOUSTON INT    CLOUDY    78  67  68 S14       29.93F
LUBBOCK        MOSUNNY   86  34  15 SW14      29.77F
SAN ANGELO     MOSUNNY   86  52  30 S12       29.81F
SAN ANTONIO    PTSUNNY   81  61  50 S9G17     29.89F
WACO           CLOUDY    78  64  61 S17       29.85F
WICHITA FALLS  NOT AVBL
$$
...OTHER LOCATIONS IN NEW MEXICO...

CITY           SKY/WX    TMP DP  RH WIND       PRES   REMARKS
ALAMAGORDO     MOSUNNY   79  27  14 W17       29.92F
ALBUQUERQUE    PTSUNNY   74  23  15 SW21      29.91F
CANNON AFB     SUNNY     82  28  13 W17G26    29.80F
CLOVIS         MOSUNNY   82  30  15 W17G29    29.80F
HOLLOMAN AFB   MOSUNNY   80  29  15 NW9G17    29.90F
ROSWELL        PTSUNNY   83  31  15 SW8G22    29.81F
RUIDOSO        SUNNY     66  23  19 W21G30    30.03F
SANTA FE       SUNNY     71  18  13 W21G33    29.91F
TRUTH OR CONSE MOSUNNY   78  23  13 NW8G17    29.89F
TUCUMCARI      SUNNY     84  24  11 W21G35    29.75F
$$

USA.gov is the U.S. government's official web portal to all federal, state and local government web resources and services.